Temperature
14 15 15 16 13 12 13 14 16 17 18 20 20 19 18 18 18 18 18 18 18 17 17 17 17 17 17 17 17 17 17 17 16 16 16 16 16 16 16 16 16 16 15 15 15 15 15 15 15
14 14 15 15 12 12 13 14 16 17 19 20 20 19 18 17 18 17 17 18 18 17 17 17 17 17 17 17 17 17 16 16 16 16 16 16 16 16 16 16 16 15 15 15 15 15 15 15 15
14 14 14 12 12 13 14 15 16 17 19 19 19 18 18 17 17 17 18 17 17 17 17 17 16 17 17 16 16 16 16 16 16 16 16 16 16 16 16 16 15 15 15 15 15 15 15 15 14
13 14 13 11 12 13 15 16 16 17 19 19 18 17 17 17 17 17 17 17 17 17 17 16 16 16 16 16 16 16 16 16 16 16 16 16 16 16 16 15 15 15 15 15 15 15 14 14 14
13 13 11 11 12 13 14 16 17 16 17 18 17 16 16 17 17 17 17 17 17 16 16 16 16 16 16 16 16 16 16 16 16 16 16 16 16 16 15 15 15 15 15 15 15 14 14 14 14
12 11 11 11 12 13 14 16 17 16 17 17 17 15 16 16 17 17 17 16 16 16 16 16 16 16 16 16 16 16 16 16 16 16 16 16 15 15 15 15 15 15 15 15 14 14 14 14 14
11 10 11 11 12 13 14 16 16 15 15 17 17 15 15 16 16 16 16 16 16 16 15 15 15 15 15 15 15 15 15 16 16 15 15 15 15 15 15 15 15 15 15 14 14 14 14 14 14
11 10 11 11 12 13 14 16 16 16 16 17 17 15 15 15 15 15 15 15 15 15 15 15 15 15 15 15 15 15 15 15 15 15 15 15 15 15 15 15 15 15 14 14 14 14 14 14 13
10 9 10 11 12 13 14 15 16 16 16 16 16 16 16 15 15 15 15 14 14 14 14 14 15 15 15 15 15 15 15 15 15 15 15 15 14 14 14 14 14 14 14 14 14 14 13 13 13
9 9 10 11 12 13 13 14 15 15 15 15 15 15 15 15 14 14 14 14 14 14 14 14 14 14 14 15 15 15 15 15 15 15 14 14 14 14 14 14 14 14 14 14 14 13 13 13 13
9 9 10 11 12 13 13 13 14 14 13 14 14 15 14 14 14 14 14 14 14 14 14 14 14 14 14 14 14 14 15 14 14 14 14 14 14 14 14 14 14 14 14 13 13 13 13 13 13
8 9 10 10 11 12 12 13 13 14 14 15 15 15 14 14 14 14 14 14 14 14 14 14 14 14 14 14 14 14 14 14 14 14 14 14 14 14 14 14 13 13 13 13 13 13 13 13 13
8 8 9 10 10 11 12 12 12 13 14 14 14 14 14 14 14 14 13 14 14 13 13 14 13 13 13 14 14 14 14 14 14 14 14 14 14 14 14 14 13 13 13 13 13 13 13 13 12
8 8 9 9 10 10 11 11 12 12 13 13 13 13 13 13 13 13 13 13 13 13 13 13 13 13 13 13 13 14 14 14 14 14 13 13 13 13 13 13 13 13 13 13 13 13 12 12 12
8 7 8 9 9 10 11 10 10 12 13 13 12 13 13 13 13 13 13 13 13 13 13 13 13 13 13 13 13 13 13 13 13 13 13 13 13 13 13 13 13 13 13 13 12 12 12 12 12
7 7 7 8 9 10 10 9 10 12 12 11 12 12 12 12 12 12 13 13 13 13 13 13 12 13 12 12 13 13 13 13 13 13 13 13 13 13 12 12 12 12 12 12 12 12 12 12 12
6 6 6 7 9 9 9 9 10 11 11 10 11 11 11 12 12 12 12 12 12 12 12 12 12 12 12 12 12 12 12 12 12 12 12 12 12 12 12 12 12 12 12 12 12 12 11 11 11
6 6 6 7 8 8 8 8 9 10 11 10 10 11 11 11 11 11 12 12 12 12 12 12 12 12 12 12 12 12 12 12 12 12 12 12 12 12 12 12 12 12 12 11 11 11 11 11 11
6 6 6 6 8 8 7 8 8 9 9 9 9 10 10 10 11 11 11 11 11 11 11 11 11 12 11 11 11 11 12 12 11 11 11 12 12 12 12 12 11 11 11 11 11 11 11 11 10
6 5 5 6 7 7 7 7 8 8 9 9 9 9 9 10 10 11 11 11 11 11 11 11 11 11 11 11 11 11 11 11 11 11 11 11 11 11 11 11 11 11 11 11 11 11 10 10 10
6 5 6 6 6 7 7 7 7 8 8 9 9 9 9 9 9 10 10 10 10 11 11 11 11 11 11 11 11 11 10 11 11 11 11 11 11 11 11 11 11 11 11 11 10 10 10 10 10
5 6 6 6 5 5 6 6 7 7 7 7 7 8 8 8 9 9 9 10 10 10 10 11 10 10 10 10 10 10 10 10 10 10 10 10 10 10 10 10 10 10 10 10 10 10 10 9 9
5 6 6 6 5 5 5 5 6 6 7 7 7 7 8 8 8 8 9 9 9 9 10 10 10 10 10 10 10 10 10 10 10 10 10 10 10 10 10 10 10 10 10 10 10 9 9 9 9
6 6 5 4 4 5 5 5 5 5 6 6 6 7 7 7 8 8 8 8 8 9 9 9 9 9 10 10 9 9 10 10 10 10 10 10 9 9 9 9 9 9 9 9 9 9 9 8 8
5 4 4 4 4 4 5 5 5 6 6 6 6 6 7 7 7 8 8 8 8 8 8 9 9 9 9 9 9 9 9 9 9 9 9 9 9 9 9 9 9 9 9 9 8 8 8 8 8
4 4 4 5 4 4 5 5 5 5 6 6 6 6 6 6 7 7 7 7 7 8 8 8 8 8 8 8 8 8 9 9 9 9 9 9 9 9 9 9 9 9 8 8 8 8 8 8 8
4 3 4 3 3 4 4 4 5 5 5 5 5 5 5 6 6 7 7 7 7 7 7 7 7 7 8 8 8 8 8 8 8 8 8 8 8 8 8 8 8 8 8 8 8 7 7 7 7
4 3 2 3 4 4 4 4 4 4 4 4 4 4 5 5 6 6 6 6 6 7 7 7 7 7 7 7 7 7 7 7 7 7 8 8 8 7 8 7 8 8 8 7 7 7 7 7 6
3 3 2 2 2 3 4 4 4 3 4 3 3 4 4 4 5 5 5 6 6 6 6 6 6 6 6 6 6 6 7 7 7 7 7 7 7 7 7 7 7 7 7 7 6 6 6 6 6
3 3 2 3 2 2 2 3 3 3 3 3 3 3 3 4 5 5 5 5 5 5 5 6 6 6 6 6 6 6 6 6 6 6 6 6 6 6 6 6 6 6 6 6 6 6 6 6 5
Wind_Speed
10 8 2 3 3 2 4 5 4 3 2 2 1 4 5 4 4 4 3 11 12 13 15 18 17 17 17 16 16 16 16 16 16 16 16 15 15 15 15 15 15 15 15 15 15 15 15 15 15
5 3 3 3 3 4 5 5 6 6 4 1 1 3 3 1 2 5 6 11 14 14 15 17 18 18 18 17 17 16 15 16 16 16 15 15 15 15 15 15 15 15 15 15 15 14 14 14 14
4 1 2 2 4 7 6 4 7 6 3 1 1 2 3 2 3 4 7 14 14 12 15 17 19 18 18 17 17 16 15 15 15 16 15 15 15 14 15 15 15 15 14 14 14 13 13 14 14
2 2 2 2 7 7 6 4 3 3 2 0 3 3 2 1 2 5 13 15 14 11 14 18 19 19 18 18 17 16 16 15 14 15 15 15 15 15 14 15 14 14 14 13 13 13 13 13 14
2 2 2 4 8 5 6 5 2 2 2 0 2 3 1 3 5 12 14 15 14 11 13 16 18 19 18 18 17 16 16 15 14 15 15 15 14 14 14 14 14 14 13 13 13 12 12 13 13
1 2 4 8 9 6 5 5 3 3 2 1 3 4 1 2 9 12 13 12 12 12 12 15 17 18 18 18 17 17 16 15 14 14 15 14 14 14 14 14 13 13 13 12 12 12 12 12 12
3 3 6 6 7 6 6 4 3 4 3 3 4 5 2 3 7 10 11 11 11 11 10 11 14 15 17 17 17 16 16 15 14 14 14 14 14 14 13 13 13 12 12 12 11 11 11 11 11
2 2 4 6 7 6 3 3 3 5 5 1 3 6 5 6 7 10 10 10 10 9 9 9 12 13 13 15 17 16 16 15 14 14 15 14 14 13 12 12 12 11 11 11 10 10 10 10 11
1 2 7 7 6 4 1 2 4 2 2 0 1 3 5 9 11 12 11 8 9 9 8 9 9 11 12 13 14 16 15 15 14 13 15 14 12 12 11 11 11 11 10 10 10 9 9 9 10
2 6 9 4 3 2 1 2 3 1 0 1 2 3 7 10 12 12 13 12 11 11 9 9 9 10 11 11 12 12 12 12 12 12 14 12 11 11 10 10 10 10 9 9 9 9 8 9 9
2 6 5 4 3 3 3 4 3 1 3 4 6 8 10 10 10 11 11 11 11 11 10 9 9 10 9 8 9 8 9 10 11 12 12 12 11 10 10 8 8 8 8 8 7 7 7 8 8
2 4 5 4 5 4 4 3 3 3 5 5 8 11 12 11 10 10 10 9 9 11 10 9 9 9 9 9 8 8 7 7 9 11 12 11 8 7 7 7 6 6 6 6 6 6 6 7 7
3 5 6 6 6 6 5 5 5 6 5 2 6 9 10 10 8 7 7 8 8 9 10 10 9 8 8 8 7 7 6 7 9 11 12 12 9 6 6 6 6 5 6 6 5 5 5 5 5
3 3 6 6 6 5 5 5 3 6 3 3 5 6 7 8 7 6 6 6 7 8 9 9 9 8 8 6 7 7 7 8 9 9 11 12 11 8 7 6 5 5 6 6 6 5 4 4 4
1 3 6 5 5 4 3 5 6 6 1 3 4 4 5 4 6 6 6 7 7 8 8 9 9 8 8 7 7 7 8 8 8 9 11 12 12 10 8 5 4 5 7 7 6 5 5 3 3
1 1 4 5 4 3 2 7 5 3 2 3 4 4 4 4 4 5 5 5 6 6 7 8 8 8 7 7 7 6 7 8 7 9 10 11 12 12 9 6 4 6 7 6 4 3 3 2 2
1 3 5 6 4 3 4 6 5 3 3 3 4 4 4 3 2 2 4 5 5 6 7 7 7 7 6 6 6 6 5 6 7 8 9 10 11 12 10 6 6 7 5 3 3 2 2 2 1
3 3 5 6 3 3 5 7 5 4 4 5 4 4 4 4 4 3 3 3 4 4 5 6 6 6 6 5 4 3 4 3 5 6 8 10 10 11 10 7 6 7 4 2 2 3 2 2 1
3 3 5 6 4 3 6 7 7 4 4 5 5 4 4 4 3 2 3 3 3 3 4 5 6 6 6 5 5 4 4 3 3 4 7 9 9 10 9 7 6 5 4 4 3 2 2 1 1
3 3 4 4 4 4 4 6 6 5 5 5 5 4 4 2 1 2 2 2 3 4 4 5 7 6 5 5 4 4 4 3 3 3 5 7 8 8 8 7 6 5 4 4 3 3 2 1 1
3 5 5 4 5 3 2 5 5 5 3 2 2 3 3 4 4 3 3 3 3 3 3 4 6 6 5 5 4 4 3 3 2 1 2 4 7 8 7 8 7 6 5 4 4 4 4 3 1
5 5 5 3 2 3 1 4 6 4 4 3 2 2 3 2 2 3 3 3 3 3 2 2 4 6 5 5 6 8 5 5 4 3 2 2 5 7 7 7 7 6 5 4 4 3 2 4 2
5 5 4 3 3 3 2 3 6 3 4 4 4 3 3 3 3 3 3 3 2 2 2 2 3 4 5 5 6 6 5 3 3 3 4 2 2 4 6 7 6 5 4 4 4 3 3 3 3
3 2 1 2 1 3 5 4 5 4 6 4 3 3 2 2 2 3 2 2 1 0 1 1 3 3 4 5 6 5 6 5 5 4 4 3 2 2 4 5 6 5 4 4 4 4 4 3 3
3 2 2 2 1 4 3 3 5 5 3 4 4 3 3 2 2 2 2 1 1 1 1 1 3 3 4 5 5 5 5 6 8 6 5 4 3 3 4 4 4 4 4 4 4 4 4 4 3
1 3 4 3 3 3 1 4 4 3 1 1 2 2 1 1 2 2 2 2 2 2 1 2 2 3 4 4 4 4 5 4 4 4 4 5 4 3 4 4 5 4 5 5 4 3 3 3 3
1 1 3 2 0 1 3 3 4 2 2 2 1 1 1 2 2 1 1 1 2 2 2 3 3 2 3 3 3 3 3 3 3 3 3 3 3 3 4 4 4 4 5 5 4 3 3 3 3
2 2 3 2 1 2 3 3 3 3 3 2 1 2 2 2 2 2 2 2 2 2 2 2 3 3 2 2 2 2 3 3 3 3 3 3 2 3 4 4 4 3 4 4 4 3 3 3 3
1 1 1 2 3 3 3 4 2 2 2 2 3 2 2 3 2 2 2 1 1 0 1 0 1 1 2 2 1 2 2 2 3 3 3 3 2 3 4 4 4 4 4 4 4 4 4 4 3
2 2 2 2 3 3 2 5 2 1 2 2 2 3 3 2 1 1 1 1 2 1 1 0 0 1 1 2 2 2 2 2 2 3 3 3 3 3 3 3 4 4 4 4 5 5 4 4 4
Wind_Direction
321 329 21 54 68 77 226 238 236 238 239 237 191 121 132 148 165 182 135 139 135 147 152 149 145 141 135 129 126 123 123 122 119 116 114 112 112 113 112 111 108 105 102 100 98 97 95 93 92
327 351 45 71 136 194 240 233 229 234 218 197 59 103 93 97 96 114 126 143 142 145 148 149 146 142 137 132 128 125 125 125 123 120 117 116 115 115 115 113 110 107 104 102 100 98 97 95 93
323 23 97 118 180 199 212 219 225 246 253 196 77 61 117 131 131 141 151 144 139 142 147 150 145 141 137 135 132 128 126 126 127 124 121 120 119 117 115 114 112 109 107 104 102 100 99 98 95
46 49 72 172 219 220 210 219 222 257 308 5 124 75 61 70 161 147 140 139 138 139 145 149 145 143 140 137 135 132 130 126 128 127 125 123 121 118 115 114 114 113 111 108 105 102 101 99 97
63 104 162 225 234 237 237 248 233 240 247 270 117 120 37 347 115 130 138 139 139 138 140 146 147 145 142 139 137 134 132 130 128 132 130 126 123 121 117 114 115 116 115 112 108 104 101 100 99
91 131 188 219 233 241 250 254 256 249 243 215 123 128 151 107 122 137 138 139 138 140 139 142 145 145 144 142 138 136 134 133 129 130 130 128 126 124 121 118 118 117 117 116 112 108 105 100 98
155 177 209 213 227 242 245 250 228 243 242 221 148 128 146 149 139 136 133 132 132 134 134 135 137 140 145 144 141 139 137 136 133 132 128 126 128 126 124 122 120 120 119 118 117 114 109 102 100
161 166 217 216 215 234 261 261 233 221 234 220 132 144 174 183 145 129 126 129 133 135 136 135 134 135 135 140 140 138 138 137 135 131 127 123 122 123 123 123 122 122 122 120 119 119 112 103 101
112 195 222 216 206 217 255 267 288 245 163 85 148 174 171 147 136 130 130 133 141 145 146 139 137 135 135 136 140 139 137 136 134 131 127 123 119 116 116 121 123 124 125 123 120 118 111 103 103
165 212 227 225 206 216 272 280 294 332 84 337 23 61 121 134 139 144 152 157 159 160 159 151 146 144 140 139 136 137 138 136 135 134 131 128 125 121 119 119 118 117 118 120 117 113 106 101 99
196 219 238 260 266 277 284 298 308 203 233 210 170 154 146 144 148 152 162 166 168 165 163 161 155 150 145 138 139 136 137 139 139 138 136 133 127 123 119 114 112 112 110 108 107 103 98 101 103
223 263 263 275 305 302 275 287 301 263 244 232 176 160 155 155 159 164 165 169 168 167 167 163 159 155 149 145 145 142 141 143 146 146 143 137 130 126 125 121 119 113 113 109 105 101 97 100 106
236 263 283 287 295 282 272 270 272 281 278 185 159 155 164 161 163 166 166 168 168 172 171 167 161 157 153 149 151 150 150 150 151 151 151 148 142 140 135 133 130 123 121 116 110 107 100 92 95
226 269 289 288 295 284 267 273 262 274 271 151 151 165 169 159 155 150 153 162 167 169 170 167 166 162 154 155 157 155 155 155 152 154 158 155 151 148 144 138 135 132 132 128 122 115 106 96 97
270 297 299 276 271 276 283 286 246 266 213 157 167 169 163 160 150 157 165 169 174 167 165 166 167 162 159 159 157 155 160 159 155 155 159 159 155 153 148 141 140 141 137 126 117 107 97 86 82
42 280 275 272 245 262 217 249 259 264 167 194 192 178 168 177 175 172 164 161 164 163 165 171 168 163 163 162 156 158 160 158 156 156 156 158 158 155 148 142 146 143 134 127 121 115 98 88 92
136 230 250 270 244 235 215 247 266 261 171 204 205 192 186 186 182 178 162 159 156 163 168 171 162 161 162 155 149 151 148 152 154 154 155 156 156 156 149 144 145 141 128 121 133 119 120 114 94
217 227 248 246 263 252 238 253 270 255 205 209 205 208 199 198 205 186 163 156 154 156 157 157 153 155 152 144 133 131 133 141 143 153 157 155 155 155 147 142 142 140 132 129 131 122 102 118 126
213 229 253 259 284 283 252 258 269 250 227 212 206 206 207 205 201 163 142 139 146 152 142 155 158 163 158 155 156 162 169 168 157 157 155 154 156 154 149 147 145 145 150 154 151 137 117 79 77
228 259 274 283 284 283 266 265 271 255 227 215 204 212 212 200 176 162 143 138 150 165 160 164 170 171 175 174 169 170 164 159 155 142 144 154 154 155 154 155 159 158 152 146 149 138 134 109 93
247 233 248 262 305 285 265 279 271 274 262 235 222 214 200 196 192 186 170 161 161 166 177 176 178 173 175 160 135 124 109 107 110 132 155 161 160 157 155 155 156 157 157 164 167 160 152 164 156
252 244 244 251 280 272 202 246 262 257 261 258 262 236 206 207 187 172 170 169 170 185 188 174 162 162 162 157 159 158 163 172 182 182 178 150 159 158 155 152 153 157 159 166 173 168 162 158 173
242 260 243 243 236 274 256 213 268 255 245 250 246 227 214 198 171 167 169 178 189 191 174 172 162 158 160 161 168 170 169 171 157 155 158 153 154 160 157 155 152 159 161 168 165 166 164 168 172
268 318 8 14 80 259 233 197 260 242 229 232 231 220 223 205 183 179 161 140 127 79 133 149 162 167 161 157 169 175 174 166 156 167 175 173 169 173 167 163 162 163 164 172 175 171 169 174 168
36 74 32 347 318 245 228 199 245 250 227 207 204 220 229 205 186 179 157 153 155 164 163 157 170 176 171 168 172 174 177 177 176 179 184 180 179 187 196 181 175 171 173 170 166 170 179 179 171
263 143 162 207 223 269 274 222 247 275 230 169 180 193 232 218 212 199 190 193 211 211 187 176 178 184 180 179 181 181 178 179 184 183 183 188 195 199 192 186 180 176 173 169 164 172 183 174 181
122 181 193 158 283 265 263 278 300 356 29 39 36 29 322 272 256 231 214 217 228 216 207 202 191 187 189 186 177 175 177 176 179 178 172 181 189 185 180 182 182 176 172 170 167 180 184 173 185
155 156 94 126 165 261 280 264 270 310 313 315 270 260 276 293 299 289 241 225 235 224 229 219 191 193 191 181 183 180 177 170 165 160 173 175 183 179 176 183 183 177 174 171 171 177 175 170 189
20 61 108 144 173 186 241 264 254 257 284 271 273 281 289 295 274 267 260 241 245 321 252 211 161 170 170 173 167 166 166 161 159 168 176 168 171 177 189 186 179 176 179 178 176 182 173 176 189
192 182 159 168 237 209 209 268 315 309 305 299 304 316 321 312 280 258 306 53 41 20 9 34 57 182 189 172 166 174 164 157 165 176 176 170 174 181 181 178 178 177 180 182 185 185 179 182 190
Height
1511 1512 1514 1515 1518 1525 1525 1517 1510 1506 1505 1503 1503 1503 1504 1507 1511 1515 1510 1510 1513 1516 1519 1522 1524 1526 1528 1529 1531 1532 1533 1534 1535 1536 1536 1537 1538 1538 1539 1539 1540 1540 1541 1541 1541 1541 1541 1541 1541
1511 1512 1515 1514 1521 1528 1522 1512 1507 1503 1502 1502 1503 1503 1504 1505 1506 1507 1507 1510 1513 1516 1519 1521 1524 1526 1528 1529 1531 1532 1533 1534 1535 1536 1537 1538 1538 1539 1540 1540 1541 1541 1542 1542 1542 1542 1542 1542 1542
1510 1512 1513 1514 1519 1520 1514 1506 1503 1500 1501 1501 1502 1503 1504 1505 1505 1506 1507 1510 1513 1516 1519 1521 1524 1526 1527 1529 1531 1532 1533 1535 1536 1536 1537 1538 1539 1540 1540 1541 1541 1542 1543 1543 1543 1543 1543 1543 1543
1509 1512 1512 1516 1514 1509 1505 1501 1500 1500 1500 1500 1501 1503 1504 1506 1506 1506 1507 1510 1513 1516 1519 1521 1524 1525 1527 1529 1531 1532 1534 1535 1536 1536 1537 1538 1539 1540 1541 1541 1542 1542 1543 1543 1544 1544 1544 1543 1543
1508 1509 1513 1515 1509 1505 1501 1500 1500 1500 1499 1500 1501 1503 1504 1505 1506 1507 1508 1510 1512 1515 1519 1521 1523 1525 1527 1529 1530 1532 1534 1535 1536 1537 1538 1538 1539 1540 1541 1542 1542 1543 1543 1544 1544 1544 1544 1544 1544
1507 1508 1514 1512 1507 1502 1500 1499 1500 1499 1499 1499 1500 1502 1504 1505 1505 1507 1509 1511 1514 1515 1518 1521 1523 1525 1527 1529 1530 1532 1534 1535 1536 1537 1538 1538 1540 1540 1541 1542 1543 1543 1544 1544 1544 1545 1545 1545 1545
1506 1507 1508 1506 1505 1502 1499 1499 1499 1499 1498 1499 1499 1501 1503 1505 1506 1507 1509 1512 1514 1516 1518 1520 1523 1525 1527 1529 1530 1532 1533 1535 1536 1537 1538 1539 1540 1540 1541 1542 1543 1543 1543 1544 1544 1545 1545 1545 1545
1504 1506 1505 1504 1502 1501 1498 1498 1498 1498 1497 1498 1499 1499 1502 1504 1505 1507 1509 1512 1514 1515 1517 1519 1521 1524 1526 1528 1530 1532 1533 1534 1535 1537 1537 1538 1539 1540 1541 1542 1543 1543 1543 1544 1544 1545 1545 1545 1545
1503 1507 1503 1500 1500 1499 1497 1497 1496 1496 1496 1496 1497 1497 1498 1501 1504 1506 1508 1511 1513 1515 1517 1518 1520 1522 1525 1527 1529 1531 1533 1534 1535 1536 1537 1538 1539 1540 1541 1542 1542 1543 1543 1544 1544 1545 1545 1545 1545
1501 1503 1498 1497 1497 1497 1496 1496 1496 1495 1495 1495 1495 1495 1497 1499 1501 1503 1505 1508 1510 1513 1515 1517 1519 1521 1523 1525 1527 1530 1532 1533 1535 1536 1537 1538 1539 1540 1541 1541 1542 1542 1543 1543 1544 1544 1545 1545 1545
1499 1499 1497 1497 1496 1496 1496 1496 1495 1494 1494 1493 1493 1494 1496 1498 1500 1501 1504 1506 1508 1511 1513 1515 1518 1520 1522 1524 1526 1528 1530 1532 1534 1535 1536 1538 1538 1539 1540 1540 1541 1542 1542 1543 1543 1543 1544 1544 1544
1500 1498 1497 1496 1496 1496 1495 1495 1495 1493 1492 1492 1492 1493 1494 1496 1498 1500 1502 1504 1507 1509 1511 1513 1516 1518 1520 1522 1524 1526 1528 1530 1532 1533 1535 1536 1537 1538 1539 1540 1541 1541 1541 1542 1542 1543 1543 1543 1543
1499 1498 1497 1496 1496 1495 1495 1494 1494 1491 1491 1491 1491 1492 1493 1494 1496 1499 1501 1503 1505 1507 1509 1512 1514 1517 1519 1521 1523 1525 1526 1528 1530 1532 1534 1535 1536 1537 1537 1539 1540 1540 1541 1541 1541 1542 1542 1542 1542
1498 1498 1497 1496 1495 1494 1494 1492 1492 1489 1490 1489 1490 1491 1491 1493 1495 1497 1499 1501 1502 1505 1507 1510 1512 1515 1517 1519 1521 1523 1525 1526 1528 1530 1532 1534 1535 1536 1537 1538 1539 1539 1540 1540 1541 1541 1541 1541 1541
1498 1499 1497 1495 1494 1493 1493 1491 1490 1489 1489 1488 1489 1490 1490 1492 1493 1495 1497 1499 1501 1503 1505 1508 1510 1513 1515 1517 1519 1521 1524 1525 1526 1528 1530 1532 1533 1534 1535 1536 1537 1538 1538 1539 1540 1540 1540 1540 1540
1498 1501 1501 1495 1493 1493 1496 1492 1488 1488 1488 1488 1488 1489 1490 1491 1492 1494 1496 1497 1499 1501 1503 1506 1508 1510 1513 1515 1517 1519 1522 1523 1524 1526 1528 1529 1531 1533 1534 1535 1536 1537 1537 1538 1538 1538 1538 1539 1538
1501 1503 1501 1496 1492 1492 1494 1491 1488 1487 1487 1487 1487 1488 1488 1489 1491 1493 1494 1496 1497 1500 1502 1504 1506 1508 1510 1513 1515 1517 1518 1520 1522 1524 1526 1528 1529 1531 1532 1533 1534 1535 1536 1536 1537 1537 1537 1537 1537
1502 1502 1499 1497 1492 1491 1491 1489 1487 1486 1486 1485 1486 1487 1487 1487 1489 1491 1493 1494 1496 1498 1500 1502 1504 1506 1508 1510 1512 1514 1516 1518 1520 1522 1524 1526 1527 1528 1530 1531 1532 1533 1534 1535 1535 1535 1535 1535 1535
1498 1500 1499 1495 1492 1492 1490 1489 1486 1485 1484 1484 1484 1485 1486 1487 1488 1489 1491 1492 1494 1496 1498 1499 1501 1503 1505 1506 1508 1510 1512 1514 1517 1519 1521 1523 1525 1526 1528 1529 1530 1530 1531 1532 1533 1533 1533 1533 1533
1496 1499 1498 1495 1491 1492 1490 1489 1485 1483 1483 1482 1482 1483 1483 1484 1486 1487 1489 1490 1492 1494 1495 1497 1499 1500 1502 1504 1506 1508 1510 1512 1514 1516 1518 1520 1522 1524 1525 1526 1527 1528 1528 1529 1530 1530 1530 1531 1530
1497 1498 1497 1496 1493 1491 1491 1489 1486 1482 1481 1481 1481 1481 1482 1482 1483 1485 1487 1488 1490 1491 1492 1494 1495 1497 1499 1501 1503 1505 1507 1509 1511 1513 1515 1517 1519 1521 1522 1523 1525 1525 1526 1527 1527 1527 1528 1528 1528
1497 1493 1493 1493 1497 1497 1493 1495 1487 1483 1481 1480 1480 1480 1480 1481 1482 1483 1484 1486 1487 1489 1490 1491 1492 1495 1497 1498 1499 1501 1503 1505 1507 1510 1511 1514 1516 1518 1519 1521 1522 1523 1524 1524 1524 1524 1525 1525 1525
1493 1490 1491 1492 1495 1497 1494 1496 1489 1483 1481 1480 1479 1479 1479 1480 1480 1481 1482 1484 1485 1486 1488 1489 1490 1492 1494 1495 1497 1499 1501 1503 1505 1507 1509 1511 1513 1515 1516 1517 1519 1520 1520 1521 1521 1522 1522 1522 1522
1490 1491 1491 1495 1497 1498 1492 1494 1490 1484 1479 1478 1477 1477 1478 1478 1479 1480 1481 1482 1483 1484 1485 1487 1488 1489 1491 1492 1494 1496 1498 1500 1502 1504 1506 1508 1510 1511 1513 1514 1515 1516 1517 1518 1518 1519 1519 1519 1519
1493 1497 1502 1501 1503 1497 1488 1490 1487 1478 1476 1475 1476 1477 1477 1477 1478 1478 1479 1480 1481 1482 1483 1484 1485 1486 1488 1490 1491 1493 1495 1496 1498 1500 1502 1504 1505 1507 1509 1510 1511 1513 1513 1514 1515 1515 1516 1516 1515
1495 1498 1503 1502 1502 1496 1489 1487 1483 1476 1474 1475 1475 1476 1476 1476 1477 1477 1477 1478 1479 1480 1481 1482 1483 1484 1485 1487 1488 1490 1492 1493 1495 1497 1499 1500 1502 1504 1506 1507 1508 1509 1510 1511 1511 1512 1512 1512 1512
1496 1499 1497 1502 1502 1501 1493 1487 1480 1474 1475 1475 1475 1475 1476 1475 1475 1475 1476 1477 1477 1478 1478 1479 1480 1481 1482 1484 1485 1487 1489 1491 1492 1493 1495 1497 1499 1501 1503 1504 1504 1505 1506 1507 1508 1508 1508 1509 1509
1495 1497 1501 1502 1502 1498 1492 1490 1485 1479 1477 1476 1475 1475 1475 1474 1473 1474 1474 1475 1475 1476 1476 1477 1478 1479 1480 1482 1483 1484 1486 1488 1489 1491 1492 1493 1495 1497 1498 1500 1501 1502 1503 1504 1504 1505 1505 1505 1505
1498 1499 1500 1503 1503 1502 1497 1490 1481 1479 1477 1476 1475 1473 1473 1472 1472 1472 1472 1473 1473 1474 1474 1475 1476 1477 1478 1479 1481 1482 1483 1485 1486 1488 1489 1490 1492 1493 1495 1496 1497 1498 1499 1500 1501 1501 1502 1502 1502
1497 1498 1500 1501 1502 1502 1500 1492 1479 1478 1476 1475 1474 1473 1472 1470 1470 1470 1470 1471 1471 1472 1472 1473 1474 1475 1476 1477 1478 1479 1480 1481 1483 1484 1486 1487 1488 1490 1491 1492 1494 1495 1496 1496 1497 1498 1498 1499 1499